This demonstration page uses our WeatherBlox Daily Observations layout. Learn more.

Left ArrowRight Arrow

36.19886, -115.1175

Hourly Observations for May 2, 2020

Temp ( °F °C ) Dew Point ( °F °C ) Humidity (%) Winds ( mph kmh ) Pressure ( in mb ) Visibility ( mi km ) Precip ( " mm )
12:53 am 00:53 Clear 79 26.1 26 -3.3 14 14 SW 14 22 29.78 1008 10 16 N/A
1:53 am 01:53 Clear 78 25.6 25 -3.9 14 14 S 9 15 29.78 1008 10 16 N/A
2:53 am 02:53 Clear 77 25 25 -3.9 14 14 S 12 19 29.76 1008 10 16 N/A
3:53 am 03:53 Clear 73 22.8 27 -2.8 18 18 S 6 9 29.78 1008 10 16 N/A
4:53 am 04:53 Clear 70 21.1 29 -1.7 22 22 NW 6 9 29.80 1009 10 16 N/A
5:53 am 05:53 Sunny 69 20.6 29 -1.7 22 22 W 5 7 29.82 1010 10 16 N/A
6:53 am 06:53 Sunny 71 21.7 29 -1.7 21 21 W 5 7 29.85 1011 10 16 N/A
7:53 am 07:53 Sunny 76 24.4 28 -2.2 17 17 WNW 13 20 29.85 1011 10 16 N/A
8:53 am 08:53 Sunny 78 25.6 30 -1.1 17 17 W 10 17 29.88 1012 10 16 N/A
9:53 am 09:53 Sunny 81 27.2 30 -1.1 16 16 SW 5 7 29.88 1012 10 16 N/A
10:53 am 10:53 Sunny 84 28.9 29 -1.7 13 13 ENE 7 11 29.89 1012 10 16 N/A
11:53 am 11:53 Sunny 85 29.4 29 -1.7 13 13 S 9 15 29.89 1012 10 16 N/A
12:53 pm 12:53 Sunny 87 30.6 28 -2.2 12 12 SE 8 13 29.87 1012 10 16 N/A
1:53 pm 13:53 Sunny 89 31.7 28 -2.2 11 11 undefined N/A 29.85 1011 10 16 N/A
2:53 pm 14:53 Sunny 90 32.2 26 -3.3 10 10 SE 8 13 29.83 1010 10 16 N/A
3:53 pm 15:53 Sunny 91 32.8 26 -3.3 9 9 S 8 13 29.81 1010 10 16 N/A
4:53 pm 16:53 Sunny 92 33.3 26 -3.3 9 9 WSW 15 24 29.80 1009 10 16 N/A
5:53 pm 17:53 Sunny 91 32.8 26 -3.3 9 9 SW 12 19 29.80 1009 10 16 N/A
6:53 pm 18:53 Sunny 89 31.7 25 -3.9 10 10 SW 14 22 29.80 1009 10 16 N/A
7:53 pm 19:53 Clear 87 30.6 28 -2.2 12 12 SW 15 24 29.81 1010 10 16 N/A
8:53 pm 20:53 Clear 85 29.4 29 -1.7 13 13 SW 14 22 29.83 1010 10 16 N/A
9:53 pm 21:53 Clear 83 28.3 29 -1.7 14 14 S 13 20 29.84 1011 10 16 N/A
10:53 pm 22:53 Clear 81 27.2 26 -3.3 13 13 SSW 15 24 29.84 1011 10 16 N/A
11:53 pm 23:53 Clear 80 26.7 25 -3.9 13 13 SW 10 17 29.85 1011 10 16 N/A

Powered by AerisWeather